TimeEDT,TemperatureF,Dew PointF,Humidity,Sea Level PressureIn,VisibilityMPH,Wind Direction,Wind SpeedMPH,Gust SpeedMPH,PrecipitationIn,Events,Conditions,WindDirDegrees,DateUTC
12:15 AM,69.8,69.8,100,30.32,10.0,Calm,Calm,-,N/A,,Scattered Clouds,0,2013-07-06 04:15:00
12:35 AM,69.8,69.8,100,30.32,10.0,Calm,Calm,-,N/A,,Clear,0,2013-07-06 04:35:00
12:55 AM,69.8,69.8,100,30.31,10.0,Calm,Calm,-,N/A,,Scattered Clouds,0,2013-07-06 04:55:00
1:15 AM,69.8,69.8,100,30.31,10.0,Calm,Calm,-,N/A,,Mostly Cloudy,0,2013-07-06 05:15:00
1:35 AM,68.0,68.0,100,30.30,7.0,Calm,Calm,-,N/A,,Scattered Clouds,0,2013-07-06 05:35:00
1:55 AM,68.0,68.0,100,30.30,10.0,Calm,Calm,-,N/A,,Clear,0,2013-07-06 05:55:00
2:15 AM,69.8,69.8,100,30.30,10.0,Calm,Calm,-,N/A,,Scattered Clouds,0,2013-07-06 06:15:00
2:35 AM,69.8,69.8,100,30.30,10.0,Calm,Calm,-,N/A,,Scattered Clouds,0,2013-07-06 06:35:00
2:55 AM,69.8,69.8,100,30.30,10.0,Calm,Calm,-,N/A,,Scattered Clouds,0,2013-07-06 06:55:00
3:15 AM,69.8,69.8,100,30.30,10.0,Calm,Calm,-,N/A,,Mostly Cloudy,0,2013-07-06 07:15:00
3:35 AM,71.6,71.6,100,30.30,10.0,Calm,Calm,-,N/A,,Overcast,0,2013-07-06 07:35:00
3:55 AM,69.8,69.8,100,30.29,7.0,Calm,Calm,-,N/A,,Overcast,0,2013-07-06 07:55:00
4:15 AM,69.8,69.8,100,30.29,7.0,Calm,Calm,-,N/A,,Scattered Clouds,0,2013-07-06 08:15:00
4:35 AM,69.8,69.8,100,30.29,7.0,Calm,Calm,-,N/A,,Clear,0,2013-07-06 08:35:00
4:55 AM,68.0,68.0,100,30.29,7.0,Calm,Calm,-,N/A,,Clear,0,2013-07-06 08:55:00
5:15 AM,66.2,66.2,100,30.30,5.0,Calm,Calm,-,N/A,,Clear,0,2013-07-06 09:15:00
5:35 AM,68.0,68.0,100,30.30,3.0,Calm,Calm,-,N/A,,Clear,0,2013-07-06 09:35:00
5:55 AM,66.2,66.2,100,30.31,10.0,Calm,Calm,-,N/A,,Clear,0,2013-07-06 09:55:00
6:15 AM,66.2,66.2,100,30.31,7.0,Calm,Calm,-,N/A,,Clear,0,2013-07-06 10:15:00
6:35 AM,68.0,68.0,100,30.31,7.0,Calm,Calm,-,N/A,,Clear,0,2013-07-06 10:35:00
6:55 AM,68.0,68.0,100,30.31,10.0,East,3.5,-,N/A,,Mostly Cloudy,90,2013-07-06 10:55:00
7:15 AM,69.8,69.8,100,30.31,10.0,Calm,Calm,-,N/A,,Overcast,0,2013-07-06 11:15:00
7:35 AM,71.6,71.6,100,30.31,10.0,SE,4.6,-,N/A,,Overcast,130,2013-07-06 11:35:00
7:55 AM,71.6,71.6,100,30.32,10.0,ESE,4.6,-,N/A,,Overcast,110,2013-07-06 11:55:00
8:15 AM,71.6,71.6,100,30.32,10.0,ESE,4.6,-,N/A,,Overcast,120,2013-07-06 12:15:00
8:35 AM,73.4,71.6,94,30.32,10.0,ESE,5.8,-,N/A,,Overcast,110,2013-07-06 12:35:00
8:55 AM,73.4,71.6,94,30.32,10.0,SE,3.5,-,N/A,,Overcast,140,2013-07-06 12:55:00
9:15 AM,75.2,71.6,89,30.32,10.0,South,4.6,-,N/A,,Overcast,170,2013-07-06 13:15:00
9:35 AM,75.2,71.6,89,30.32,10.0,SSE,3.5,-,N/A,,Overcast,160,2013-07-06 13:35:00
9:55 AM,75.2,71.6,89,30.32,10.0,South,3.5,-,N/A,,Overcast,170,2013-07-06 13:55:00
10:15 AM,77.0,73.4,89,30.32,10.0,SE,4.6,-,N/A,,Overcast,130,2013-07-06 14:15:00
10:35 AM,77.0,71.6,83,30.32,10.0,South,5.8,-,N/A,,Overcast,190,2013-07-06 14:35:00
10:55 AM,78.8,71.6,78,30.32,10.0,SSE,8.1,-,N/A,,Scattered Clouds,160,2013-07-06 14:55:00
11:15 AM,80.6,71.6,74,30.32,10.0,SSE,8.1,-,N/A,,Scattered Clouds,160,2013-07-06 15:15:00
11:35 AM,80.6,71.6,74,30.32,10.0,South,4.6,-,N/A,,Scattered Clouds,180,2013-07-06 15:35:00
11:55 AM,80.6,69.8,70,30.32,10.0,SSW,8.1,-,N/A,,Scattered Clouds,200,2013-07-06 15:55:00
12:15 PM,82.4,69.8,66,30.32,10.0,South,10.4,-,N/A,,Scattered Clouds,190,2013-07-06 16:15:00
12:35 PM,82.4,68.0,62,30.31,10.0,SSW,10.4,-,N/A,,Scattered Clouds,200,2013-07-06 16:35:00
12:55 PM,82.4,66.2,58,30.30,10.0,South,6.9,-,N/A,,Scattered Clouds,180,2013-07-06 16:55:00
1:15 PM,82.4,68.0,62,30.30,10.0,South,10.4,-,N/A,,Scattered Clouds,190,2013-07-06 17:15:00
1:35 PM,82.4,68.0,62,30.29,10.0,South,9.2,-,N/A,,Scattered Clouds,170,2013-07-06 17:35:00
1:55 PM,82.4,68.0,62,30.28,10.0,SW,6.9,-,N/A,,Scattered Clouds,220,2013-07-06 17:55:00
2:15 PM,84.2,69.8,62,30.28,10.0,SSE,8.1,-,N/A,,Scattered Clouds,160,2013-07-06 18:15:00
2:35 PM,84.2,68.0,58,30.28,10.0,South,6.9,17.3,N/A,,Scattered Clouds,190,2013-07-06 18:35:00
2:55 PM,84.2,68.0,58,30.27,10.0,SSW,6.9,-,N/A,,Scattered Clouds,200,2013-07-06 18:55:00
3:15 PM,84.2,68.0,58,30.26,10.0,SSW,8.1,-,N/A,,Scattered Clouds,210,2013-07-06 19:15:00
3:35 PM,84.2,68.0,58,30.26,10.0,SSW,10.4,-,N/A,,Scattered Clouds,200,2013-07-06 19:35:00
3:55 PM,84.2,68.0,58,30.25,10.0,SSE,9.2,-,N/A,,Scattered Clouds,150,2013-07-06 19:55:00
4:15 PM,84.2,69.8,62,30.25,10.0,SSW,6.9,-,N/A,,Scattered Clouds,200,2013-07-06 20:15:00
4:35 PM,84.2,69.8,62,30.24,10.0,SSW,6.9,-,N/A,,Scattered Clouds,200,2013-07-06 20:35:00
4:55 PM,84.2,69.8,62,30.24,10.0,South,8.1,-,N/A,,Scattered Clouds,180,2013-07-06 20:55:00
5:15 PM,84.2,69.8,62,30.23,10.0,South,5.8,-,N/A,,Scattered Clouds,190,2013-07-06 21:15:00
5:35 PM,82.4,69.8,66,30.23,10.0,South,4.6,-,N/A,,Scattered Clouds,190,2013-07-06 21:35:00
5:55 PM,82.4,71.6,70,30.23,10.0,South,9.2,-,N/A,,Mostly Cloudy,170,2013-07-06 21:55:00
6:15 PM,80.6,71.6,74,30.23,10.0,SSE,8.1,-,N/A,,Mostly Cloudy,150,2013-07-06 22:15:00
6:35 PM,80.6,71.6,74,30.22,10.0,SSE,9.2,-,N/A,,Mostly Cloudy,160,2013-07-06 22:35:00
6:55 PM,78.8,71.6,78,30.23,10.0,SSE,8.1,-,N/A,,Scattered Clouds,150,2013-07-06 22:55:00
7:15 PM,78.8,69.8,74,30.24,10.0,South,6.9,-,N/A,,Mostly Cloudy,190,2013-07-06 23:15:00
7:35 PM,78.8,71.6,78,30.24,10.0,SSW,4.6,-,N/A,,Overcast,200,2013-07-06 23:35:00
7:55 PM,78.8,71.6,78,30.24,10.0,SW,3.5,-,N/A,,Overcast,220,2013-07-06 23:55:00
8:15 PM,75.2,71.6,89,30.23,10.0,Calm,Calm,-,N/A,,Scattered Clouds,0,2013-07-07 00:15:00
8:35 PM,75.2,71.6,89,30.24,10.0,Calm,Calm,-,N/A,,Clear,0,2013-07-07 00:35:00
8:55 PM,75.2,69.8,83,30.26,10.0,SW,3.5,-,N/A,,Clear,220,2013-07-07 00:55:00
9:15 PM,73.4,69.8,88,30.27,10.0,Calm,Calm,-,N/A,,Scattered Clouds,0,2013-07-07 01:15:00
9:35 PM,73.4,69.8,88,30.27,10.0,SW,3.5,-,N/A,Thunderstorm,Scattered Clouds,220,2013-07-07 01:35:00
9:55 PM,73.4,71.6,94,30.29,10.0,Calm,Calm,-,N/A,,Mostly Cloudy,0,2013-07-07 01:55:00
10:15 PM,73.4,69.8,88,30.29,10.0,Calm,Calm,-,N/A,,Scattered Clouds,0,2013-07-07 02:15:00
10:35 PM,73.4,71.6,94,30.29,10.0,South,5.8,-,N/A,Rain,Light Rain,170,2013-07-07 02:35:00
10:55 PM,71.6,71.6,100,30.30,10.0,South,3.5,-,N/A,,Drizzle,180,2013-07-07 02:55:00
11:15 PM,71.6,71.6,100,30.28,10.0,Calm,Calm,-,0.01,,Overcast,0,2013-07-07 03:15:00
11:35 PM,71.6,71.6,100,30.27,10.0,SSE,3.5,-,0.01,,Scattered Clouds,160,2013-07-07 03:35:00
11:55 PM,71.6,71.6,100,30.27,10.0,Calm,Calm,-,0.01,,Scattered Clouds,0,2013-07-07 03:55:00